Location: Central Falls
(41.8900°N, 71.3929°W)
Time: 11:25:22
(UTC+00:00)

A-11 Canister half - Pass Details

Date: 12 December 2023
Orbit: 1526 x 1682 km, 47.3° (Epoch: 20 February)

Event Time Altitude Azimuth Distance (km) Brightness Sun altitude
Rises 23:32:15 0° 262° (W) 4,917 13.1 -24.7°
Reaches altitude 10° 23:35:27 10° 265° (W) 3,937 12.2 -25.3°
Maximum altitude 23:45:36 69° 348° (NNW) 1,773 9.2 -27.2°
Enters shadow 23:49:13 45° 56° (NE) 2,176 9.3 -27.9°
Drops below altitude 10° 23:55:40 10° 72° (ENE) 3,912 - -29.1°
Sets 23:58:50 0° 75° (ENE) 4,884 - -29.7°
